Location: Arrodets-la-Barthe
(43.0306°N, 0.2829°E)
Time: 06:45:32
(UTC+00:00)

CUBEBUG 2 - Pass Details

Date: 06 April 2023
Orbit: 577 x 685 km, 97.8° (Epoch: 03 June)

Event Time Altitude Azimuth Distance (km) Brightness Sun altitude
Rises 03:30:09 0° 0° (N) 3,053 ? -21.7°
Reaches altitude 10° 03:32:44 10° 348° (NNW) 2,122 ? -21.3°
Enters shadow 03:36:05 25° 303° (WNW) 1,352 ? -20.8°
